This is the latest recevied weather packets stored in our database for station/object IU5GBO-13. If no packets are shown the sender has not sent any weather packets the latest 10 day(s).
| Time | Temp. | Humidity | Pressure | Rain* | Wind** | Luminosity | Snow |
|---|---|---|---|---|---|---|---|
| 1777526773 | 16.11° C | 60% | 1018.6 hPa | - | - | - | - |
| 1777526173 | 15.56° C | 61% | 1018.5 hPa | - | - | - | - |
| 1777525573 | 15° C | 63% | 1018.4 hPa | - | - | - | - |
| 1777524973 | 13.89° C | 66% | 1018.2 hPa | - | - | - | - |
| 1777524373 | 13.33° C | 68% | 1018 hPa | - | - | - | - |
| 1777523773 | 12.78° C | 69% | 1018 hPa | - | - | - | - |
| 1777523173 | 12.22° C | 69% | 1018 hPa | - | - | - | - |
| 1777522573 | 12.22° C | 67% | 1018.1 hPa | - | - | - | - |
| 1777521973 | 12.22° C | 67% | 1018.3 hPa | - | - | - | - |
| 1777521373 | 11.67° C | 68% | 1018.1 hPa | - | - | - | - |
| 1777520772 | 11.67° C | 67% | 1018 hPa | - | - | - | - |
| 1777520173 | 11.67° C | 66% | 1017.9 hPa | - | - | - | - |
| 1777519573 | 11.67° C | 66% | 1017.9 hPa | - | - | - | - |
| 1777518972 | 11.11° C | 67% | 1017.9 hPa | - | - | - | - |
| 1777518373 | 11.11° C | 65% | 1018.1 hPa | - | - | - | - |
| 1777517773 | 11.67° C | 63% | 1017.9 hPa | - | - | - | - |
| 1777517173 | 11.67° C | 62% | 1017.9 hPa | - | - | - | - |
| 1777516573 | 11.67° C | 62% | 1018 hPa | - | - | - | - |
| 1777515973 | 11.11° C | 65% | 1018 hPa | - | - | - | - |
| 1777515372 | 10.56° C | 65% | 1017.9 hPa | - | - | - | - |
| 1777514772 | 10.56° C | 65% | 1017.8 hPa | - | - | - | - |
| 1777514172 | 11.11° C | 64% | 1017.6 hPa | - | - | - | - |
| 1777513572 | 11.67° C | 62% | 1017.6 hPa | - | - | - | - |
| 1777512972 | 11.67° C | 62% | 1017.6 hPa | - | - | - | - |
| 1777512373 | 11.67° C | 62% | 1017.6 hPa | - | - | - | - |
* Rain since midnight (hover to see other rain measurements)
** Current wind speed in m/s (hover to see current wind gust speed)